Weather in Chendemerovo

Russia / Mari El Republic     56°54′08″N   49°05′34″E
temp.,
°C
wind,
m/s
gust,
m/s
humid.,
%
clouds,
%
prec.,
mm/h
press.,
hPa
HPBL,
m
25 february, thu
thu2500:00−25wsw129894 0.0 103420
03:00−25ssw339679 0.0 103322
06:00−23s3595100 0.0 1031112
09:00−21s5892100 0.0 1028250
12:00−18sse61188100 0.0 1024366
15:00−17sse71294100 0.3 1022456
18:00−17sse61294100 0.5 1020535
21:00−17sse61194100 0.9 1019471
26 february, fri
fri2600:00−17sse51095100 0.3 1017450
03:00−17sse51094100 0.7 1017437
06:00−18se5995100 0.1 1015332
09:00−16se599496 0.3 1015377
12:00−14se699199 0.1 1013456
15:00−12se71191100 0.1 1010487
18:00−12se81494100 0.3 1006473
21:00−10se91694100 2.0 1000485
27 february, sat
sat2700:00−10se81494100 4.8 996533
03:00−10ese61095100 7.8 994370
06:00−10e5895100 2.1 993273
09:00−10ene5795100 3.3 994314
12:00−10ne5795100 1.1 995394
15:00−10nne5894100 2.3 997503
18:00−11nne61194100 0.6 999489
21:00−13nne51193100 0.6 1001398
28 february, sun
sun2800:00−16n5119699 0.0 1002294
03:00−19n5109688 0.1 1005215
06:00−22n599723 0.0 1006184
09:00−20n599523 0.0 1008280
12:00−17n599279 0.0 1010426
15:00−15n699189 0.0 1011534
18:00−17n4996100 0.0 1013205
21:00−19n499896 0.1 1016160
1 march, mon
mon100:00−21n469929 0.0 101886
03:00−22n479817 0.0 102086
06:00−23n34982 0.0 102154
09:00−20nnw35972 0.0 1023149
12:00−16nw338918 0.0 1023235
15:00−14wnw249010 0.0 1022233
18:00−17wsw349427 0.0 102158
21:00−13sw5109463 0.0 1018240